PROGRESS-MS 24 (57691 NORAD) Tracking and Keplerian Element Data

This shows tracking and keplerian element data for the satellite.

Feedback or suggestion? Click here.




ElementValue
Catalog57691
NamePROGRESS-MS 24
Epoch Orbit41274
Epoch Day238.81019348
Epoch Year2023
RAAN338.6841
Inclination51.6418
Eccentricity0.0005052
Argument of Perigee0.8428
Mean Anonmoly143.94
Mean Motion15.4995381
Decay Rate0.00024236
L11 57691U 23125A 23238.81019348 .00024236 00000+0 43191-3 0 9990
L22 57691 51.6418 338.6841 0005052 0.8428 143.9400 15.49953810412746



Live tracking and technical data element details for PROGRESS-MS 24 (NORAD 57691). PROGRESS-MS 24 can be tracked NOW for your location showing map with azimuth and elevation plus other details from your city location.







IsCatalogInMostPopularTable: catalog: 57691, numindb: 32
Update: records affected: 1



GetName: 57691 PROGRESS-MS 24

Hit Count: updated at: Mon, 04 Dec 2023 02:51:54 GMT